Weather in Lincoln

United States     40°47′21″N   96°41′36″W
temp.,
°C
wind,
m/s
gust,
m/s
humid.,
%
clouds,
%
prec.,
mm/h
press.,
hPa
HPBL,
m
23 may, mon
mon2301:00+11se41064100 0.0 1027259
04:00+11se41065100 0.0 1025258
07:00+11s3674100 0.0 1025184
10:00+14sse3661100 0.0 1025824
13:00+16ese6847100 0.0 10221871
16:00+17se5748100 0.0 10202098
19:00+15s4857100 0.1 1020365
22:00+11e368597 1.5 1020162
24 may, tue
tue2401:00+11ne3787100 1.6 1020232
04:00+11ene4893100 0.0 1019304
07:00+11e5989100 0.0 1018396
10:00+10e51294100 1.6 1018569
13:00+10ene81495100 8.6 1017741
16:00+10ene81595100 6.9 1015765
19:00+9ene81596100 14.5 1014737
22:00+10ne81597100 6.8 1013691
25 may, wed
wed2501:00+10ne71497100 9.1 1011803
04:00+11ne61198100 3.8 1009590
07:00+10ne61097100 7.5 1009593
10:00+10nne61096100 0.0 1010571
13:00+10n4798100 9.6 1011426
16:00+11ne6890100 3.1 1010618
19:00+11n4591100 3.2 1011744
22:00+10nne4895100 0.0 1013367
26 may, thu
thu2601:00+10n489586 0.0 1014325
04:00+10nne489399 0.0 1014336
07:00+9n379691 0.0 1015279
10:00+13n457766 0.0 1015632
13:00+18nne3466100 0.0 10141120
16:00+19nne3459100 0.0 10131222
19:00+17n3473100 0.0 1012147
22:00+14ene2280100 0.0 101318
27 may, fri
fri2701:00+12n128699 0.0 101310
04:00+11n228791 0.0 101411
07:00+12nnw22860 0.0 101536
10:00+18ne34640 0.0 1014497
13:00+22ene33510 0.0 10131054
16:00+23e22470 0.0 10111370
19:00+22ese33560 0.0 1011261
22:00+16se46750 0.0 101183